Regional Weather Roundup
Issued by NWS

Home | Current Version | Previous Version | Graphics & Text | Print | Product List | Glossary On
Versions: 1 2 3 4 5 6 7 8 9 10 11 12 13 14 15 16 17 18 19 20 21 22 23 24 25 26 27 28 29 30 31 32 33 34 35 36 37 38 39 40 41 42 43 44 45 46 47 48 49 50
000
ASUS43 KDTX 031510
RWRMI
MICHIGAN HOURLY REGIONAL WEATHER ROUNDUP
NATIONAL WEATHER SERVICE DETROIT/PONTIAC MI
1100 AM EDT MON AUG 03 2015

NOTE: "FAIR" INDICATES FEW OR NO CLOUDS BELOW 12,000 FEET WITH NO
SIGNIFICANT WEATHER AND/OR OBSTRUCTION TO VISIBILITY.

MIZ047>049-052>055-059>063-066>070-074>076-081>083-031600-
SOUTHEAST LOWER MICHIGAN

CITY           SKY/WX    TMP DP  RH WIND       PRES   REMARKS
ADRIAN         PTSUNNY   71  64  78 VRB7      29.82R
ALMA           PTSUNNY   71  63  76 W7        29.79R
ANN ARBOR      MOSUNNY   72  63  73 W9        29.80R
BAD AXE        PTSUNNY   69  60  72 W7        29.76S
DETROIT CITY   SUNNY     72  61  68 NW12      29.78S
DETROIT        MOSUNNY   74  63  68 W12       29.79S
FLINT          MOSUNNY   73  60  63 SW9       29.79S
GROSSE ILE     MOSUNNY   73  64  73 W8        29.77S
HILLSDALE      MOSUNNY   71  66  84 W6        29.82S
HOWELL         PTSUNNY   72  62  70 W8        29.80S

CITY           SKY/WX    TMP DP  RH WIND       PRES   REMARKS
JACKSON        MOSUNNY   71  63  75 VRB7      29.81S
LAMBERTVILLE   CLOUDY    72  64  76 W9G16     29.81R
LANSING        MOSUNNY   72  61  68 W7        29.80S
LAPEER         NOT AVBL
MASON          MOSUNNY   69  60  74 CALM      29.80S
MONROE         CLOUDY    71  64  79 W10       29.79R
MT. CLEMENS    MOSUNNY   73  62  67 W10       29.76S
PONTIAC        PTSUNNY   70  60  70 W12       29.79S
PORT HURON     MOSUNNY   72  59  64 W7        29.77S
TRI CITIES     MOSUNNY   72  63  73 SW9       29.77F
YPSILANTI      MOSUNNY   76  64  66 W10       29.80R
$$
MIZ043>046-050>051-056>058-064>065-071>073-077>080-031600-
SOUTHWEST LOWER MICHIGAN

CITY           SKY/WX    TMP DP  RH WIND       PRES   REMARKS
BATTLE CREEK     N/A    N/A N/A N/A MISG      29.82S
BENTON HARBOR  MOSUNNY   72  65  78 W9G16     29.83R
BIG RAPIDS     SUNNY     71  59  66 W10       29.78S
COLDWATER      MOSUNNY   71  63  74 W6        29.82S
HOLLAND        PTSUNNY   73  64  73 W9        29.82R
GRAND RAPIDS   MOSUNNY   73  63  70 W9        29.80S
KALAMAZOO      MOSUNNY   74  64  71 W9        29.82S
MARSHALL       MOSUNNY   72  64  74 W5        29.81S
MUSKEGON       MOSUNNY   74  59  59 NW9       29.80S
$$
MIZ016>042-031600-
NORTHERN LOWER MICHIGAN

CITY           SKY/WX    TMP DP  RH WIND       PRES   REMARKS
ALPENA         MOSUNNY   72  56  57 W10       29.71S
BEAVER ISLAND  CLOUDY    66  55  67 W8        29.74S
BELLAIRE       CLOUDY    69  57  66 W5        29.75S
CADILLAC       CLOUDY    70  59  68 W12G18    29.78R
CHARLEVOIX     CLOUDY    67  56  68 W10       29.77S
FRANKFORT      CLOUDY    67  59  74 NW7       29.77S
GAYLORD        CLOUDY    66  54  65 W9        29.75S
GRAYLING       CLOUDY    67  60  77 W6        29.75F
HARBOR SPRINGS CLOUDY    66  57  72 SW7       29.73S
HOUGHTON LAKE  PTSUNNY   67  60  78 W9        29.77S
MANISTEE       MOSUNNY   64  55  72 NW7       29.79S
OSCODA         CLOUDY    73  60  63 W12       29.72S
PELLSTON       CLOUDY    68  55  63 NW13      29.73R
TRAVERSE CITY  CLOUDY    68  59  73 NW12      29.74S
$$
MIZ007>008-015-031600-
EASTERN UPPER MICHIGAN

CITY           SKY/WX    TMP DP  RH WIND       PRES   REMARKS
KINROSS        PTSUNNY   64  54  68 NW9G16    29.70R
MACKINAC ISLAN PTSUNNY   66  55  68 W8        29.72S
NEWBERRY       CLOUDY    64  55  72 W7        29.71S
S. S. MARIE    CLOUDY    63  52  67 W9        29.69R
$$
MIZ004>006-011>014-085-031600-
CENTRAL UPPER MICHIGAN

CITY           SKY/WX    TMP DP  RH WIND       PRES   REMARKS
MANISTIQUE     PTSUNNY   66  55  68 NW7       29.73S
ESCANABA       SUNNY     70  52  52 W12       29.73S
MENOMINEE      CLOUDY    68  52  56 W5        29.76S
SAWYER-GWINN   CLOUDY    64  50  59 NW8       29.74S
$$
MIZ001>003-009>011-084-031600-
WESTERN UPPER MICHIGAN

CITY           SKY/WX    TMP DP  RH WIND       PRES   REMARKS
IRON MOUNTAIN  MOSUNNY   69  50  50 W12       29.74F
HOUGHTON       LGT RAIN  59  53  80 W7        29.73R
COPPER HARBOR    N/A     62  52  69 N9        29.70S
IRONWOOD       MOSUNNY   63  52  67 W16G23    29.77R
$$

ABBREVIATIONS USED IN REMARKS
   TC - TEMPERATURE IN CELSIUS
  WCI - WIND CHILL INDEX
   HX - HEAT INDEX
  VSB - VISIBILITY



USA.gov is the U.S. government's official web portal to all federal, state and local government web resources and services.